sat.trackr.live / text

‹ back to catalog

STARLINK-36670

NORAD 67828 · 2026-033H

PAYLOAD ACTIVE UNKNOWN

§ Identity

Operator
Country
US
Launch date
2026-02-16
Launch site
AFETR
Launch vehicle
Mass (kg)
RCS (m²)

Purposes: comms

External: N2YO · Heavens-Above · Gunter

§ Orbital elements

Epoch: 2026-09-19T23:20:48.524640Z

Period
94.26 min
Inclination
43.0013°
Eccentricity
0.0001345
Mean motion
15.27639068 rev/d
Perigee alt
481.9 km
Apogee alt
483.8 km
Semi-major
6,861.0 km
B*
1.1103e-3
RAAN
250.1507°
Arg perigee
287.4516°
Mean anomaly
72.6188°
Rev number
3,438

§ Raw data

STARLINK-366701 67828U 26033H   26262.97278385  .00030472  00000+0  11103-2 0  99952 67828  43.0013 250.1507 0001345 287.4516  72.6188 15.27639068 34387

JSON: /api/v1/satellites/67828 · /tle

For live sub-satellite position, see the globe view (requires WebGL).

§ Visibility from observer

Set your observer location to see the next 7 days of passes ≥ 10°. The values pass through the URL so the page stays shareable.

No JS? Fill the form by hand. The geolocation button needs JavaScript.